Showing default

DJIBOUTI-1B, 62402

Orbit data source: Space-Track

DJIBOUTI-1B, 62402 is a Djibouti payload satellite in LEO that was launched on Sat, 21 Dec 2024 UTC via an FALCON 9 launch vehicle from the Air Force Western Test Range (AFWTR). Payload-class satellites include a variety of spacecraft equipped with specific instruments for various scientific and technological missions. These include communications satellites like Starlink; space stations such as the ISS; scientific satellites like the Hubble; Earth observation satellites from companies like Planet Labs, Umbra, and HawkEye 360; GPS; miniature CubeSats for education and research; and military/defense satellites.

Loading next visibility...
Identifier
62402, 2024-247AB
Orbit
LEO
Country
Flag of DJDJ / DJI
Related business
Manufacturer
Montpellier
Mission
Operational Civil Technology
Bus & Motor
CUBESAT 1U, Unknown motor
Mass
1 kg wet, 1 kg dry
Launch date (UTC)
2024-12-21 (1 year ago)
Launch vehicle
FALCON 9
Launch site
Air Force Western Test Range (AFWTR)
Object type
Payload
Rocket body
Debris
Shape & HBR
Box, 0.1 m
Radar Cross Section
0.015 m², Small (<0.1 m²)

Expand to show TLE details & history
Last TLE update: 12 hours ago

TLE from 12 hours ago
0 DJIBOUTI-1B
1 62402U 24247AB  26036.67577405  .00058584  00000-0  12791-2 0  9993
2 62402  44.9738 266.4275 0008217 182.9076 177.1766 15.43413869 63136
Epoch: 2026-02-05T16:13Z
TLE epoch observation values (Epoch: 2026-02-05T16:13:06.877Z)
Latitude
-0.00005°
Longitude
-112.6758°
Altitude
441.63 km
Speed
7.646 km/s
True Right ascension
17h 45m 42s
True Declination
0° 00' 00"
Sunlit
Object was in daylight at epoch
Visualization orbit readout
Latitude
Unknown
Longitude
Unknown
Altitude
Unknown
Speed
Unknown
Apparent Right ascension
Unknown
Apparent Declination
Unknown
Sunlit
N/A
Visualization observer readout
Local Sidereal Time
06:39:26
Azimuth
Unknown
Elevation
Unknown
Doppler factor
Unknown
Orbital elements
Apogee altitude
443.268 km
Perigee altitude
432.067 km
Semi-major axis
6,815.804 km
Eccentricity
0.00082
Inclination
44.9738°
RAAN
266.4275°
Arg. of periapsis
182.9076°
True anomaly
177.18123°
Mean anomaly
177.1766°
Eccentric anomaly
177.17892°
Mean motion
3.85716 °/min
Orbital period
93.33 mins
BSTAR
0.0012791
Loading maneuver chart data...
Computing Atmospheric mass density...
Loading historical data...
Loading historical data...
Loading historical data...
Loading historical data...
Loading historical data...
Loading historical data...
Loading historical data...

Documentation

Showing up to 5 results
|